Вернуться в каталог

ONEWEB-0086

АктивенСвязьPO
NORAD 45456·PAYLOAD·🇬🇧 United Kingdom

Запущен Mar 21, 2020 с Baikonur Cosmodrome

Loading…

Ближайшие Пролёты (ближайшие 24 часа)

TLE

СвежийSource: CelesTrak SupGP

Эпоха: Sep 14, 2026, 17:53 UTC

1 45456C 20020AJ  26257.74562917  .00001830  00000+0  51680-2 0  2571
2 45456  87.8989   3.2635 0002136  81.8178  20.0859 13.11419583    10

Отслеживайте ONEWEB-0086 в реальном времени с AllMySat

Download on the App Store